{"data":{"norad_id":58627,"epoch":"2026-09-20T16:04:01.739712Z","epoch_age_seconds":135140,"freshness":"FRESH","line1":"1 58627U 23203K   26263.66946458  .00000087  00000+0  12694-4 0  9995","line2":"2 58627  43.0024  45.7303 0001185 269.4694  90.6022 15.27576031153386","mean_motion":15.27576031,"eccentricity":0.0001185,"inclination_deg":43.0024,"raan_deg":45.7303,"arg_perigee_deg":269.4694,"mean_anomaly_deg":90.6022,"bstar":1.2694e-5,"rev_number":15338,"period_min":94.266993640724,"perigee_km":482.24792871852,"apogee_km":483.87403263994,"semimajor_km":6861.1979806792,"source":"CELESTRAK","updated_at":"2026-09-21T09:00:33.923366Z"}}